Time,TemperatureF,DewpointF,PressureIn,WindDirection,WindDirectionDegrees,WindSpeedMPH,WindSpeedGustMPH,Humidity,HourlyPrecipIn,Conditions,Clouds,dailyrainin,SoftwareType,DateUTC
2013-06-27 00:01:00,69.0,68.0,29.90,South,182,0.0,0.0,97,0.05,,,0.26,,2013-06-27 04:01:00,
2013-06-27 00:11:00,69.0,68.0,29.90,South,182,0.0,0.0,97,0.05,,,0.26,,2013-06-27 04:11:00,
2013-06-27 00:32:00,69.0,68.0,29.88,South,182,0.0,0.0,97,0.04,,,0.26,,2013-06-27 04:32:00,
2013-06-27 00:42:00,69.0,68.0,29.86,South,183,0.0,0.0,97,0.00,,,0.26,,2013-06-27 04:42:00,
2013-06-27 00:53:00,69.0,68.0,29.86,South,183,0.0,0.0,97,0.00,,,0.26,,2013-06-27 04:53:00,
2013-06-27 01:02:00,69.0,68.0,29.86,South,191,0.0,0.0,97,0.00,,,0.26,,2013-06-27 05:02:00,
2013-06-27 01:12:00,69.0,68.0,29.86,South,191,0.0,0.0,97,0.00,,,0.26,,2013-06-27 05:12:00,
2013-06-27 01:22:00,69.0,68.0,29.86,WNW,299,0.0,0.0,97,0.00,,,0.26,,2013-06-27 05:22:00,
2013-06-27 01:32:00,69.0,68.0,29.85,SW,229,0.0,0.0,97,0.00,,,0.26,,2013-06-27 05:32:00,
2013-06-27 01:42:00,68.0,67.0,29.85,SW,229,0.0,0.0,97,0.00,,,0.26,,2013-06-27 05:42:00,
2013-06-27 01:53:00,68.0,67.0,29.85,SW,229,0.0,0.0,97,0.00,,,0.26,,2013-06-27 05:53:00,
2013-06-27 02:02:00,68.0,67.0,29.85,SW,229,0.0,0.0,97,0.00,,,0.26,,2013-06-27 06:02:00,
2013-06-27 02:12:00,68.0,67.0,29.85,WSW,253,0.0,0.0,97,0.00,,,0.26,,2013-06-27 06:12:00,
2013-06-27 02:34:00,68.0,67.0,29.84,West,269,0.0,0.0,97,0.00,,,0.26,,2013-06-27 06:34:00,
2013-06-27 02:43:00,68.0,67.0,29.84,West,269,0.0,0.0,97,0.00,,,0.26,,2013-06-27 06:43:00,
2013-06-27 02:53:00,68.0,67.0,29.84,West,269,0.0,0.0,97,0.00,,,0.26,,2013-06-27 06:53:00,
2013-06-27 03:02:00,68.0,67.0,29.85,West,267,0.0,0.0,97,0.00,,,0.26,,2013-06-27 07:02:00,
2013-06-27 03:12:00,68.0,67.0,29.85,WSW,237,0.0,0.0,97,0.00,,,0.26,,2013-06-27 07:12:00,
2013-06-27 03:22:00,68.0,67.0,29.84,SW,218,0.0,0.0,97,0.00,,,0.26,,2013-06-27 07:22:00,
2013-06-27 03:33:00,67.0,66.0,29.84,SW,217,0.0,0.0,97,0.00,,,0.26,,2013-06-27 07:33:00,
2013-06-27 03:42:00,67.0,66.0,29.84,SSW,205,0.0,0.0,97,0.00,,,0.26,,2013-06-27 07:42:00,
2013-06-27 03:52:00,67.0,66.0,29.84,SSW,205,0.0,0.0,97,0.00,,,0.26,,2013-06-27 07:52:00,
2013-06-27 04:01:00,67.0,66.0,29.83,SSW,205,0.0,0.0,97,0.00,,,0.26,,2013-06-27 08:01:00,
2013-06-27 04:34:00,68.0,67.0,29.83,SSW,201,0.0,0.0,98,0.00,,,0.26,,2013-06-27 08:34:00,
2013-06-27 04:43:00,68.0,67.0,29.83,SSW,197,0.0,0.0,98,0.00,,,0.26,,2013-06-27 08:43:00,
2013-06-27 04:52:00,68.0,67.0,29.82,SSW,197,0.0,0.0,98,0.00,,,0.26,,2013-06-27 08:52:00,
2013-06-27 05:02:00,68.0,67.0,29.82,South,180,0.0,0.0,98,0.00,,,0.26,,2013-06-27 09:02:00,
2013-06-27 05:22:00,68.0,67.0,29.82,SSE,157,0.0,0.0,98,0.00,,,0.26,,2013-06-27 09:22:00,
2013-06-27 05:34:00,68.0,67.0,29.82,SSE,157,0.0,0.0,98,0.00,,,0.26,,2013-06-27 09:34:00,
2013-06-27 05:43:00,68.0,67.0,29.82,SSE,157,0.0,0.0,98,0.00,,,0.26,,2013-06-27 09:43:00,
2013-06-27 05:53:00,68.0,67.0,29.81,SSE,157,0.0,0.0,98,0.00,,,0.26,,2013-06-27 09:53:00,
2013-06-27 06:01:00,68.0,67.0,29.81,SSE,157,0.0,0.0,98,0.00,,,0.26,,2013-06-27 10:01:00,
2013-06-27 06:11:00,68.0,67.0,29.81,SSE,157,0.0,0.0,98,0.00,,,0.26,,2013-06-27 10:11:00,
2013-06-27 06:32:00,68.0,67.0,29.80,SE,144,0.0,0.0,98,0.00,,,0.26,,2013-06-27 10:32:00,
2013-06-27 06:44:00,69.0,69.0,29.81,South,176,0.0,0.0,99,0.00,,,0.26,,2013-06-27 10:44:00,
2013-06-27 07:02:00,69.0,69.0,29.81,SSE,162,2.0,5.0,99,0.00,,,0.26,,2013-06-27 11:02:00,
2013-06-27 07:43:00,70.0,70.0,29.81,SSE,166,2.0,6.0,99,0.00,,,0.26,,2013-06-27 11:43:00,
2013-06-27 07:52:00,71.0,71.0,29.81,SSE,162,0.0,7.0,99,0.00,,,0.26,,2013-06-27 11:52:00,
2013-06-27 08:02:00,71.0,71.0,29.81,SE,125,3.0,6.0,99,0.00,,,0.26,,2013-06-27 12:02:00,
2013-06-27 08:34:00,72.0,71.0,29.81,South,180,0.0,7.0,98,0.00,,,0.26,,2013-06-27 12:34:00,
2013-06-27 08:42:00,73.0,72.0,29.81,SSW,197,2.0,9.0,98,0.00,,,0.26,,2013-06-27 12:42:00,
2013-06-27 09:01:00,73.0,72.0,29.79,South,169,4.0,10.0,97,0.00,,,0.26,,2013-06-27 13:01:00,
2013-06-27 09:11:00,74.0,73.0,29.79,SSE,158,4.0,10.0,96,0.00,,,0.26,,2013-06-27 13:11:00,
2013-06-27 09:34:00,74.0,72.0,29.78,South,176,3.0,10.0,95,0.00,,,0.26,,2013-06-27 13:34:00,
2013-06-27 12:53:00,84.0,74.0,29.78,WNW,289,1.0,5.0,72,0.00,,,0.26,,2013-06-27 16:53:00,
2013-06-27 13:02:00,84.0,72.0,29.78,SW,220,1.0,6.0,68,0.00,,,0.26,,2013-06-27 17:02:00,
2013-06-27 13:43:00,86.0,74.0,29.77,SSE,158,0.0,5.0,68,0.00,,,0.26,,2013-06-27 17:43:00,
2013-06-27 14:32:00,88.0,74.0,29.73,SSE,155,2.0,7.0,64,0.00,,,0.26,,2013-06-27 18:32:00,
2013-06-27 14:44:00,88.0,76.0,29.73,WNW,301,0.0,6.0,67,0.00,,,0.26,,2013-06-27 18:44:00,
2013-06-27 14:52:00,89.0,74.0,29.73,NNW,330,2.0,7.0,62,0.00,,,0.26,,2013-06-27 18:52:00,
2013-06-27 15:42:00,81.0,71.0,29.72,SSE,151,1.0,8.0,72,0.00,,,0.26,,2013-06-27 19:42:00,
2013-06-27 15:53:00,82.0,73.0,29.72,South,170,2.0,10.0,75,0.00,,,0.26,,2013-06-27 19:53:00,
2013-06-27 16:02:00,83.0,73.0,29.70,South,184,4.0,10.0,72,0.00,,,0.26,,2013-06-27 20:02:00,
2013-06-27 16:11:00,84.0,74.0,29.70,SSE,167,3.0,7.0,72,0.00,,,0.26,,2013-06-27 20:11:00,
2013-06-27 16:46:00,88.0,75.0,29.68,SSE,168,5.0,10.0,65,0.00,,,0.26,,2013-06-27 20:46:00,
2013-06-27 16:54:00,88.0,75.0,29.68,SSE,164,2.0,7.0,65,0.00,,,0.26,,2013-06-27 20:54:00,
2013-06-27 17:06:00,88.0,75.0,29.68,SSE,158,6.0,7.0,66,0.00,,,0.26,,2013-06-27 21:06:00,
2013-06-27 17:15:00,87.0,75.0,29.67,South,172,0.0,4.0,68,0.00,,,0.26,,2013-06-27 21:15:00,
2013-06-27 17:53:00,76.0,73.0,29.68,SSE,160,0.0,3.0,89,0.07,,,0.33,,2013-06-27 21:53:00,
2013-06-27 18:06:00,77.0,74.0,29.68,SSE,155,0.0,1.0,90,0.07,,,0.33,,2013-06-27 22:06:00,
2013-06-27 18:16:00,77.0,74.0,29.68,South,177,0.0,0.0,89,0.07,,,0.33,,2013-06-27 22:16:00,
2013-06-27 18:25:00,78.0,74.0,29.68,South,177,0.0,1.0,89,0.07,,,0.33,,2013-06-27 22:25:00,
2013-06-27 18:57:00,79.0,74.0,29.67,SE,139,2.0,4.0,86,0.00,,,0.33,,2013-06-27 22:57:00,
2013-06-27 19:06:00,78.0,73.0,29.68,SSE,165,1.0,8.0,86,0.00,,,0.33,,2013-06-27 23:06:00,
2013-06-27 19:45:00,78.0,74.0,29.69,SSE,162,0.0,5.0,88,0.00,,,0.33,,2013-06-27 23:45:00,
2013-06-27 19:55:00,78.0,74.0,29.70,SSE,147,1.0,4.0,89,0.00,,,0.33,,2013-06-27 23:55:00,
2013-06-27 20:07:00,78.0,74.0,29.70,SSE,154,0.0,1.0,89,0.00,,,0.33,,2013-06-28 00:07:00,
2013-06-27 20:45:00,77.0,74.0,29.70,SSE,159,1.0,10.0,91,0.00,,,0.33,,2013-06-28 00:45:00,
2013-06-27 21:09:00,77.0,74.0,29.69,SSE,152,0.0,5.0,92,0.00,,,0.20,,2013-06-28 01:09:00,
2013-06-27 21:46:00,76.0,74.0,29.69,SSE,159,0.0,4.0,92,0.00,,,0.20,,2013-06-28 01:46:00,
2013-06-27 21:56:00,76.0,74.0,29.70,SSE,160,0.0,2.0,92,0.00,,,0.20,,2013-06-28 01:56:00,
2013-06-27 22:49:00,75.0,72.0,29.70,SSE,165,0.0,0.0,91,0.00,,,0.15,,2013-06-28 02:49:00,
2013-06-27 23:45:00,74.0,72.0,29.70,SSE,166,0.0,0.0,92,0.00,,,0.11,,2013-06-28 03:45:00,
2013-06-27 23:55:00,74.0,72.0,29.71,SSE,166,0.0,0.0,92,0.00,,,0.11,,2013-06-28 03:55:00,